Regional Weather Roundup
Issued by NWS Albany, NY

Home | Current Version | Previous Version | Graphics & Text | Print | Product List | Glossary On
Versions: 1 2 3 4 5 6 7 8 9 10 11 12 13 14 15 16 17 18 19 20 21 22 23 24 25 26 27 28
000
ASUS41 KALY 221810
RWRALY

NEW YORK STATE HOURLY WEATHER ROUNDUP
NATIONAL WEATHER SERVICE ALBANY NY
200 PM EDT MON AUG 22 2016

NOTE: "FAIR" INDICATES FEW OR NO CLOUDS BELOW 12,000 FEET WITH NO
SIGNIFICANT WEATHER AND/OR NO OBSTRUCTIONS TO VISIBILITY.

NYZ032-033-038>043-046>054-057>066-NYZ062>081-082-084-221900-
EAST


CITY           SKY/WX    TMP DP  RH WIND       PRES   REMARKS
ALBANY         MOSUNNY   71  52  50 W20G25    30.05R
GLENS FALLS    SUNNY     69  47  45 N13G21    30.05R
POUGHKEEPSIE     N/A    N/A N/A N/A MISG      30.01R
NEWBURGH       MOSUNNY   73  55  53 NW17G29   30.04S
MONTGOMERY     PTSUNNY   74  53  48 NW15      30.04R
WHITE PLAINS   MOSUNNY   76  53  44 NW21      30.01R
ISLIP          MOSUNNY   79  56  45 NW22G28   29.97R
NEW YORK CITY  MOSUNNY   78  54  43 NW21G29   30.00R
CENTRAL PARK   SUNNY     77  53  43 VRB7G18   30.04S
$$

NYZ005>009-017-018-044>046-055-056-221900-
CENTRAL


CITY           SKY/WX    TMP DP  RH WIND       PRES   REMARKS
FULTON         MOSUNNY   69  48  47 NW12      30.14S
SYRACUSE       MOSUNNY   69  48  47 NW10G18   30.12S
ROME           PTSUNNY   68  49  50 NW13      30.12R
ELMIRA         PTSUNNY   70  47  43 N9        30.14S
BINGHAMTON     MOSUNNY   66  45  46 N16G23    30.14S
MONTICELLO     PTSUNNY   66  50  55 NW18      30.10S
$$

NYZ026>034-041>043-087-221900-
NORTH


CITY           SKY/WX    TMP DP  RH WIND       PRES   REMARKS
WATERTOWN      PTSUNNY   68  50  52 W13       30.12R
FORT DRUM      NOT AVBL
MASSENA        CLOUDY    69  49  48 W10       30.07S
SARANAC LAKE   PTSUNNY   60  45  57 VRB7G16   30.07S
PLATTSBURGH    PTSUNNY   67  47  48 W12G21    30.03S
$$

NYZ001>004-010>016-019>021-085-221900-
WEST


CITY           SKY/WX    TMP DP  RH WIND       PRES   REMARKS
BUFFALO        PTSUNNY   70  50  49 W8        30.16S
DUNKIRK        SUNNY     69  49  48 VRB6      30.19S
JAMESTOWN      PTSUNNY   66  46  48 W9        30.21R
WELLSVILLE     PTSUNNY   66  44  45 NW10      30.21R
ROCHESTER      MOSUNNY   72  48  42 W10       30.15S
PENN YAN       PTSUNNY   70  47  43 NW8       30.16S
$$

             KEY
       WCI = WIND CHILL INDEX
       VSB = VISIBILITY
       HX  = HEAT INDEX
$$




USA.gov is the U.S. government's official web portal to all federal, state and local government web resources and services.